Regional Weather Roundup
Issued by NWS

Home | Current Version | Previous Version | Graphics & Text | Print | Product List | Glossary On
Versions: 1 2 3 4 5 6 7 8 9 10 11 12 13 14 15 16 17 18 19 20 21 22 23 24 25 26 27
000
ASUS45 KBOI 231810
RWRID

IDAHO REGIONAL WEATHER ROUNDUP
NATIONAL WEATHER SERVICE BOISE ID
1100 AM MST THU NOV 23 2017

NOTE: "FAIR" INDICATES FEW OR NO CLOUDS BELOW 12000 FEET
WITH NO SIGNIFICANT WEATHER AND/OR OBSTRUCTIONS TO VISIBILITY

IDZ012-014-231900-
SOUTHWEST IDAHO


CITY           SKY/WX    TMP DP  RH WIND       PRES   REMARKS
BOISE          CLOUDY    57  44  62 SE13      30.07F
CALDWELL       FOG       48  48 100 VRB3      30.08F VSB 3/4
MOUNTAIN HOME  CLOUDY    54  49  83 E12       30.10F
$$

IDZ016-017-231900-
SOUTHCENTRAL IDAHO


CITY           SKY/WX    TMP DP  RH WIND       PRES   REMARKS
BURLEY         PTSUNNY   61  45  55 SW6       30.15S
JEROME         CLOUDY    55  44  66 MISG      30.16S
TWIN FALLS     CLOUDY    64  41  42 SW15G24   30.16F
$$

IDZ019>023-231900-
SOUTHEAST IDAHO


CITY           SKY/WX    TMP DP  RH WIND       PRES   REMARKS
IDAHO FALLS    MOSUNNY   46  40  79 SE6       30.16F
POCATELLO      PTSUNNY   60  44  55 VRB5      30.17S
REXBURG        CLOUDY    47  41  80 CALM      30.15F
$$

IDZ006-010-011-018-031-032-231900-
CENTRAL IDAHO MOUNTAINS


CITY           SKY/WX    TMP DP  RH WIND       PRES   REMARKS
MCCALL         PTSUNNY   52  40  63 SE12      30.07F
HAILEY         PTSUNNY   48  39  71 NW5       30.19F
STANLEY          N/A     54  33  45 MISG      30.17F
SALMON         CLOUDY    37  37 100 CALM      30.06F FOG
CHALLIS        MOSUNNY   43  36  76 CALM      30.09F
$$

IDZ002-004-006-007-026-231900-
NORTHERN IDAHO


CITY           SKY/WX    TMP DP  RH WIND       PRES   REMARKS
LEWISTON       CLOUDY    54  52  93 N5        29.87F
LOWELL           N/A     48  46  93 CALM      29.96S
COEUR D`ALENE  PTSUNNY   57  50  77 SW14      29.80S
MULLAN PASS    RAIN      41  40  96 SW16G29   29.85S FOG
$$




USA.gov is the U.S. government's official web portal to all federal, state and local government web resources and services.